Monroe, LA

6:40 AM CDT on August 24, 2016 (GMT -0500)
Monroe Regional

Weather History for KMLU - July, 2013

Change the Weather History Date:

Friday, July 12, 2013

  Actual Average Record
Temperature  
Mean Temperature 82 °F 83 °F  
Max Temperature 94 °F 94 °F 107 °F (1930)
Min Temperature 69 °F 72 °F 65 °F (1972)
Degree Days  
Heating Degree Days 0 0  
Month to date heating degree days 0 0  
Since 1 June heating degree days 0 0  
Since 1 July heating degree days 0 0  
Cooling Degree Days 17 18  
Month to date cooling degree days 183 216  
Year to date cooling degree days 977 1117  
Since 1 June cooling degree days 627 682  
Growing Degree Days 31 (Base 50)    
Moisture  
Dew Point 68 °F    
Average Humidity 69    
Maximum Humidity 100    
Minimum Humidity 38    
Precipitation  
Precipitation 0.00 in 0.13 in 2.82 in (1949)
Month to date precipitation T 1.64  
Year to date precipitation 30.46 30.37  
Snow  
Snow 0.00 in - - ()
Month to date snowfall 0.0  
Since 1 June snowfall 0.0  
Since 1 July snowfall 0.0  
Snow Depth 0.00 in    
Sea Level Pressure  
Sea Level Pressure 29.95 in    
Wind  
Wind Speed 5 mph (NNE)    
Max Wind Speed 15 mph    
Max Gust Speed 18 mph    
Visibility 7 miles    
Events Fog    
T = Trace of Precipitation, MM = Missing Value Source: NWS Daily Summary

Daily Weather History Graph

Daily Weather History Graph

Search for Another Location

Airport or City:

Trip Planner

Search our weather history database for the weather conditions in past years. The results will help you decide how hot, cold, wet, or windy it might be!

Date:

Astronomy

Jul. 12, 2013 Rise Set
Actual Time 6:09 AM CDT 8:17 PM CDT
Civil Twilight 5:42 AM CDT 8:45 PM CDT
Nautical Twilight 5:07 AM CDT 9:19 PM CDT
Astronomical Twilight 4:31 AM CDT 9:55 PM CDT
Moon 10:10 AM CDT (7/12) 10:46 PM CDT (7/12)
Length of Visible Light 15h 03m
Length of Day
14h 07m
Waxing Crescent, 17% of the Moon is Illuminated
Jul 12
Waxing Crescent
Jul 15
First Quarter
Jul 22
Full
Jul 29
Last Quarter
Aug 6
New

Hourly Weather History & Observations

Time (CDT) Temp. Heat Index Dew Point Humidity Pressure Visibility Wind Dir Wind Speed Gust Speed Precip Events Conditions
12:53 AM 73.0 °F - 70.0 °F 90% 29.94 in 10.0 mi NE 4.6 mph - N/A   Clear
1:53 AM 72.0 °F - 70.0 °F 93% 29.92 in 10.0 mi NW 4.6 mph - N/A   Clear
2:53 AM 73.0 °F - 70.0 °F 90% 29.92 in 9.0 mi Calm Calm - N/A   Clear
3:53 AM 71.1 °F - 70.0 °F 96% 29.94 in 5.0 mi Calm Calm - N/A   Clear
4:30 AM 71.6 °F - 69.8 °F 94% 29.95 in 1.8 mi Calm Calm - N/A   Clear
4:33 AM 69.8 °F - 69.8 °F 100% 29.95 in 1.0 mi Calm Calm - N/A   Mist
4:41 AM 69.8 °F - 68.0 °F 94% 29.95 in 0.5 mi Calm Calm - N/A Fog Fog
4:51 AM 69.8 °F - 69.8 °F 100% 29.95 in 0.2 mi Calm Calm - N/A Fog Fog
4:53 AM 70.0 °F - 69.1 °F 97% 29.95 in 0.5 mi Calm Calm - N/A Fog Fog
5:09 AM 69.8 °F - 69.8 °F 100% 29.96 in 1.5 mi Calm Calm - N/A   Scattered Clouds
5:12 AM 69.8 °F - 69.8 °F 100% 29.96 in 3.0 mi Calm Calm - N/A   Partly Cloudy
5:26 AM 69.8 °F - 69.8 °F 100% 29.96 in 1.8 mi Calm Calm - N/A   Partly Cloudy
5:40 AM 71.6 °F - 69.8 °F 94% 29.96 in 3.0 mi Calm Calm - N/A   Clear
5:53 AM 70.0 °F - 69.1 °F 97% 29.96 in 2.0 mi Calm Calm - N/A   Clear
6:00 AM 69.8 °F - 69.8 °F 100% 29.97 in 1.8 mi Calm Calm - N/A   Clear
6:07 AM 71.6 °F - 69.8 °F 94% 29.97 in 3.0 mi Calm Calm - N/A   Clear
6:30 AM 71.6 °F - 69.8 °F 94% 29.97 in 7.0 mi Calm Calm - N/A   Partly Cloudy
6:53 AM 72.0 °F - 70.0 °F 93% 29.97 in 7.0 mi Calm Calm - N/A   Clear
7:53 AM 77.0 °F - 71.1 °F 82% 29.99 in 10.0 mi NNE 5.8 mph - N/A   Clear
8:53 AM 80.1 °F 83.6 °F 71.1 °F 74% 29.99 in 10.0 mi NE 9.2 mph - N/A   Clear
9:53 AM 82.9 °F 88.8 °F 73.0 °F 72% 29.99 in 10.0 mi ENE 4.6 mph - N/A   Clear
10:53 AM 86.0 °F 93.8 °F 73.9 °F 67% 29.99 in 10.0 mi Variable 3.5 mph - N/A   Clear
11:53 AM 91.0 °F 99.3 °F 73.0 °F 55% 29.97 in 10.0 mi Variable 3.5 mph - N/A   Clear
12:53 PM 91.9 °F 98.4 °F 71.1 °F 50% 29.96 in 10.0 mi NNE 9.2 mph - N/A   Clear
1:53 PM 93.0 °F 96.4 °F 66.9 °F 42% 29.95 in 10.0 mi NNE 9.2 mph 18.4 mph N/A   Clear
2:53 PM 93.0 °F 99.0 °F 70.0 °F 47% 29.94 in 10.0 mi NNW 8.1 mph - N/A   Clear
3:53 PM 93.0 °F 97.9 °F 69.1 °F 45% 29.93 in 10.0 mi NNE 10.4 mph - N/A   Partly Cloudy
4:53 PM 93.0 °F 95.0 °F 64.9 °F 39% 29.91 in 10.0 mi NNW 10.4 mph - N/A   Clear
5:53 PM 91.9 °F 92.9 °F 63.0 °F 38% 29.90 in 10.0 mi North 11.5 mph - N/A   Clear
6:53 PM 88.0 °F 89.3 °F 64.0 °F 45% 29.91 in 10.0 mi ENE 12.7 mph - N/A   Clear
7:53 PM 84.0 °F 84.5 °F 62.1 °F 47% 29.93 in 10.0 mi ENE 6.9 mph - N/A   Clear
8:53 PM 79.0 °F - 62.1 °F 56% 29.95 in 10.0 mi ENE 4.6 mph - N/A   Clear
9:53 PM 75.9 °F - 62.1 °F 62% 29.96 in 10.0 mi ENE 4.6 mph - N/A   Clear
10:53 PM 75.0 °F - 62.1 °F 64% 29.96 in 10.0 mi NE 3.5 mph - N/A   Clear
11:53 PM 72.0 °F - 62.1 °F 71% 29.97 in 10.0 mi Calm Calm - N/A   Clear